Tracking 30415 objects as of 14-May-2025
HD Live streaming from Space Station
objects crossing your sky now

THORAD AGENA D DEB

Track THORAD AGENA D DEB now!
10-day predictions


NORAD ID: 6139
Int'l Code: 1970-025MV
Perigee: 846.0 km
Apogee: 952.4 km
Inclination: 98.9 °
Period: 102.8 minutes
Semi major axis: 7270 km
RCS: 0.0148 m2 (small)
Launch date: April 8, 1970
Source: United States (US)
Launch site: AIR FORCE WESTERN TEST RANGE (AFWTR)

Note: This is SATELLITE DEBRIS
Your satellite tracking list
Your tracking list is empty




NASA's NSSDC Master Catalog

Two Line Element Set (TLE):
1 06139U 70025MV  25128.14512320  .00002250  00000-0  15093-2 0  9998
2 06139  98.9354   6.7264 0073169  19.3199 341.0714 14.00503462772283
Source of the keplerian elements: AFSPC